{"data":{"norad_id":67436,"intl_designator":"2026-007B","name":"HULIANWANG DIGUI-138","alt_names":[],"object_type":"PAYLOAD","status":"ACTIVE","operator":null,"country":"PRC","launch_date":"2026-01-13","launch_site_code":"WSC","launch_vehicle":null,"mission":null,"orbit_class":"UNKNOWN","rcs_meters":null,"size_class":null,"mass_kg":null,"dimensions":null,"purposes":[],"wikipedia_slug":null,"has_3d_model":false,"image_url":null,"decayed_at":null,"tle_current":{"epoch":"2026-05-25T02:13:06.714048Z","epoch_age_seconds":60941,"freshness":"FRESH","line1":"1 67436U 26007B   26145.09243882 -.00000086  00000+0  81041-4 0  9997","line2":"2 67436  50.0038 168.7959 0000898 281.5386  78.5385 13.29324383 17717","mean_motion":13.29324383,"eccentricity":8.98e-5,"inclination_deg":50.0038,"raan_deg":168.7959,"arg_perigee_deg":281.5386,"mean_anomaly_deg":78.5385,"bstar":8.1041e-5,"rev_number":1771,"period_min":108.3257042762,"perigee_km":1148.6367111636,"apogee_km":1149.9886411254,"semimajor_km":7527.4496761445,"source":"CELESTRAK","updated_at":"2026-05-25T13:38:07.003914Z"}}}